EW9943 Weather Reports


Display with metric or nautical units.
time (UTC)temp
F
wind
direction
speed
MPH
gust
MPH
rain 1hr
in
rain 24hr
in
rain mn
in
humidity
%
barometer
mb
20260507114519 48 325 1.0 3.0 0.00 0.42 0.09 90 1004.1
20260507113019 47 360 0.0 2.0 0.00 0.42 0.09 89 1004.0
20260507111518 47 360 0.0 2.0 0.00 0.42 0.09 90 1004.3
20260507110027 46 360 0.0 2.0 0.00 0.42 0.09 90 1004.4
20260507104515 46 298 0.0 2.0 0.00 0.42 0.09 90 1004.6
20260507103013 46 304 1.0 2.0 0.00 0.42 0.09 90 1004.8
20260507101512 46 339 0.0 2.0 0.00 0.42 0.09 91 1004.0
20260507100018 46 315 0.0 3.0 0.00 0.42 0.09 91 1004.1
20260507094509 46 327 3.0 6.0 0.00 0.42 0.09 91 1003.7
20260507093009 46 355 3.0 8.0 0.00 0.42 0.09 91 1003.3
20260507091507 47 360 3.0 5.0 0.00 0.42 0.09 92 1003.7
20260507090007 47 355 1.0 5.0 0.00 0.42 0.09 92 1003.8
20260507084508 48 336 2.0 6.0 0.00 0.42 0.09 92 1003.6
20260507083003 48 355 1.0 5.0 0.00 0.42 0.09 93 1003.5
20260507081505 48 351 0.0 4.0 0.00 0.42 0.09 93 1003.4
20260507080001 48 328 2.0 9.0 0.00 0.42 0.09 93 1003.4
20260507074615 48 334 2.0 6.0 0.00 0.42 0.09 94 1003.4
20260507073059 48 355 1.0 4.0 0.00 0.42 0.09 93 1003.0
20260507071556 48 345 1.0 3.0 0.00 0.42 0.09 94 1002.7
20260507070106 48 327 0.0 3.0 0.00 0.42 0.09 94 1002.3
20260507064604 48 338 2.0 4.0 0.01 0.42 0.09 94 1002.3
20260507063058 49 346 3.0 10.0 0.01 0.42 0.09 94 1002.5
20260507061552 49 360 3.0 12.0 0.01 0.42 0.09 94 1002.3
20260507060057 49 342 2.0 5.0 0.01 0.42 0.09 95 1002.0
20260507054554 49 310 0.0 3.0 0.01 0.41 0.08 94 1002.3
20260507053050 50 339 0.0 4.0 0.02 0.41 0.08 95 1002.2
20260507051547 49 336 0.0 4.0 0.07 0.41 0.08 95 1002.3
20260507050043 48 273 0.0 3.0 0.08 0.41 0.08 94 1002.1
20260507044543 48 282 18.0 20.0 0.07 0.40 0.07 94 1002.0
20260507043040 47 266 18.0 20.0 0.06 0.39 0.06 94 1001.8
20260507041535 47 259 10.0 13.0 0.01 0.34 0.01 94 1001.6
20260507040034 47 260 10.0 13.0 0.00 0.33 0.00 94 1001.8
20260507034537 47 261 11.0 14.0 0.00 0.33 0.33 94 1001.7
20260507033032 47 252 12.0 15.0 0.00 0.33 0.33 94 1001.8
20260507031531 47 242 14.0 19.0 0.00 0.33 0.33 94 1001.9
20260507030031 48 229 15.0 21.0 0.00 0.33 0.33 94 1001.9
20260507024528 48 239 15.0 20.0 0.00 0.33 0.33 94 1002.0
20260507023027 48 231 14.0 20.0 0.00 0.33 0.33 94 1002.3
20260507021526 48 227 16.0 22.0 0.00 0.33 0.33 94 1002.4
20260507020035 48 225 16.0 25.0 0.00 0.33 0.33 94 1002.6
20260507014523 48 216 16.0 23.0 0.01 0.33 0.33 94 1002.7
20260507013039 48 224 15.0 22.0 0.02 0.33 0.33 93 1002.8
20260507011520 48 224 15.0 22.0 0.03 0.33 0.33 93 1003.0
20260507010019 48 183 13.0 20.0 0.03 0.32 0.32 93 1003.0
20260507004517 48 230 12.0 20.0 0.02 0.31 0.31 93 1003.2
20260507003016 49 234 14.0 22.0 0.03 0.31 0.31 93 1003.4
20260507001516 48 213 10.0 21.0 0.03 0.30 0.30 93 1003.4
20260507000018 49 208 12.0 24.0 0.04 0.28 0.28 93 1003.3
20260506234520 49 235 10.0 19.0 0.06 0.28 0.28 93 1003.5
20260506233014 49 223 10.0 24.0 0.07 0.28 0.28 93 1003.7
20260506231511 49 221 11.0 25.0 0.09 0.27 0.27 93 1003.7
20260506230010 49 213 14.0 21.0 0.12 0.25 0.25 92 1003.8
20260506224510 49 227 13.0 21.0 0.13 0.23 0.23 92 1003.8
20260506223007 49 169 17.0 23.0 0.14 0.21 0.21 92 1004.1
20260506221507 49 223 15.0 22.0 0.13 0.18 0.18 92 1004.2
20260506220007 49 217 16.0 27.0 0.09 0.13 0.13 91 1004.4
20260506214502 49 213 16.0 21.0 0.07 0.10 0.10 91 1004.6
20260506213002 50 228 17.0 23.0 0.04 0.07 0.07 90 1004.7
20260506211610 50 230 17.0 23.0 0.03 0.05 0.05 90 1004.7
20260506210100 50 217 16.0 23.0 0.02 0.04 0.04 90 1004.6
20260506204600 50 210 17.0 22.0 0.02 0.03 0.03 90 1004.7
20260506203059 50 217 17.0 24.0 0.03 0.03 0.03 89 1004.9
20260506201558 50 221 18.0 23.0 0.02 0.02 0.02 89 1005.1
20260506200057 50 219 21.0 26.0 0.02 0.02 0.02 89 1005.0
20260506194557 50 219 17.0 24.0 0.01 0.01 0.01 88 1004.9
20260506193057 50 227 21.0 26.0 0.00 0.00 0.00 88 1005.0
20260506191556 50 215 17.0 23.0 0.00 0.00 0.00 88 1004.5
20260506190057 50 228 15.0 22.0 0.00 0.00 0.00 88 1004.7
20260506184553 50 229 18.0 26.0 0.00 0.00 0.00 88 1005.0
20260506183052 50 203 18.0 23.0 0.00 0.00 0.00 88 1005.2
20260506181550 50 229 16.0 25.0 0.00 0.00 0.00 88 1005.3
20260506180049 50 219 14.0 20.0 0.00 0.00 0.00 89 1005.6
20260506174549 50 219 14.0 25.0 0.00 0.00 0.00 89 1005.6
20260506173101 49 227 14.0 21.0 0.00 0.00 0.00 89 1005.7
20260506171551 49 215 12.0 19.0 0.00 0.00 0.00 89 1005.9
20260506170044 49 227 14.0 19.0 0.00 0.00 0.00 89 1006.2
20260506164554 49 227 14.0 19.0 0.00 0.00 0.00 90 1006.5
20260506163046 49 224 13.0 17.0 0.00 0.00 0.00 90 1006.7
20260506161544 49 228 12.0 16.0 0.00 0.00 0.00 90 1007.0
20260506160050 49 225 14.0 17.0 0.00 0.00 0.00 90 1007.2
20260506154550 49 224 14.0 19.0 0.00 0.00 0.00 90 1007.6
20260506153042 49 229 14.0 19.0 0.00 0.00 0.00 90 1007.2
20260506151542 49 236 14.0 19.0 0.00 0.00 0.00 90 1007.1
20260506150039 49 223 14.0 18.0 0.00 0.00 0.00 90 1007.0
20260506144537 49 238 15.0 18.0 0.00 0.00 0.00 90 1006.9
20260506143037 49 228 13.0 18.0 0.00 0.00 0.00 90 1007.2
20260506141537 49 231 13.0 17.0 0.00 0.00 0.00 91 1007.7
20260506140032 48 231 12.0 16.0 0.00 0.00 0.00 91 1007.6
20260506134532 48 254 10.0 14.0 0.00 0.00 0.00 91 1007.8
20260506133032 48 236 11.0 14.0 0.00 0.00 0.00 91 1007.6
20260506131535 48 264 7.0 11.0 0.00 0.00 0.00 91 1007.5
20260506130031 48 244 9.0 11.0 0.00 0.00 0.00 91 1007.3
20260506124527 48 254 5.0 9.0 0.00 0.00 0.00 91 1007.6
20260506123026 47 261 6.0 8.0 0.00 0.00 0.00 91 1007.9
20260506121520 47 254 3.0 7.0 0.00 0.00 0.00 91 1007.8
20260506120029 47 261 4.0 8.0 0.00 0.00 0.00 91 1008.1